INTELSAT 19 (IS-19)

Last updated on Wed Sep 17 2025 00:02:47 GMT+0000 (Coordinated Universal Time)

1 38356U 12030A 25259.58447578 .00000000 00000+0 00000+0 0 9990 2 38356 0.0180 158.9449 0002988 30.7091 182.5371 1.00270835 47704
UTC large
Height (km)
Speed (km/s)
/
Latitude / Longitude
Inclination (degrees)
Orbital Period (minutes)
Azimuth
Elevation
Range (km)
Doppler Factor

Next 0 passes for location: London (51.5072 / 0.1276)

Sorry there are no passes over London.